[[{"header":{"parameterUnit":"m.s-1","parameterCategory":1,"la1":30.2991,"la2":30.254,"lo1":-89.0895,"lo2":-89.0444,"dy":0.0017,"dx":0.0017,"nx":28,"ny":28,"refTime":"2024-05-01T03:00:00:Z","depth":0,"parameterNumber":2,"parameterNumberName":"U-component_of_WINDS"},"data":[0,0,0,0,0,0,0,0,0,0,0,0,0,0,0,0,0,0,0,0,0,0,0,0,0,0,0,0,0,0,0,0,0,0,0,0,0,0,0,0,0,0,0,0,0,0,0,0,0,0,0,0,0,0,0,0,0,0,-0.3443,-0.3442,0,-0.3418,-0.3417,-0.3417,-0.3401,-0.3401,-0.3401,-0.34,-0.3376,-0.3375,-0.3374,0,0,0,0,0,0,0,0,0,0,0,0,0,-0.3478,-0.3477,-0.3443,-0.3442,-0.3442,-0.3418,-0.3417,-0.3417,-0.3401,-0.3401,-0.3401,-0.34,-0.3376,-0.3375,-0.3374,0,0,0,0,0,0,0,0,0,0,0,0,0,-0.3459,-0.3477,-0.3443,-0.3431,-0.343,-0.3418,-0.3417,-0.3417,-0.3401,-0.3401,-0.3401,-0.34,-0.3376,-0.3375,-0.3374,-0.3372,0,0,-0.3372,-0.3371,0,0,0,0,0,0,0,0,-0.346,-0.3457,-0.3433,-0.3432,-0.343,-0.3412,-0.3421,-0.3402,-0.3401,-0.3412,-0.34,-0.34,-0.3388,-0.3386,-0.3382,-0.3371,-0.337,-0.3372,-0.3371,-0.3371,-0.3371,0,0,0,0,0,0,0,-0.3461,-0.3458,-0.3433,-0.3433,-0.3431,-0.3427,-0.3425,-0.3417,-0.3401,-0.3411,-0.341,-0.3407,-0.3387,-0.3383,-0.3381,-0.337,-0.3372,-0.3371,-0.337,-0.337,-0.3357,-0.3357,0,0,0,0,0,0,-0.3464,-0.3459,-0.3434,-0.3432,-0.3445,-0.3427,-0.3424,-0.3418,-0.3401,-0.3398,-0.3407,-0.3406,-0.3384,-0.3382,-0.338,-0.3377,-0.3371,-0.337,-0.3369,-0.3357,-0.3357,-0.3357,0,0,0,0,0,0,-0.3465,-0.3462,-0.3435,-0.3445,-0.3442,-0.3426,-0.342,-0.3418,-0.3413,-0.3398,-0.3395,-0.3405,-0.3384,-0.3381,-0.3375,-0.3376,-0.337,-0.3369,-0.3357,-0.3357,-0.3357,-0.3371,0,0,0,0,0,0,-0.3466,-0.3462,-0.3461,-0.3445,-0.3441,-0.3429,-0.342,-0.3417,-0.3412,-0.341,-0.3396,-0.3393,-0.3384,-0.3376,-0.3374,-0.3375,-0.3368,-0.3357,-0.3357,-0.3357,-0.337,-0.3371,-0.3372,0,0,0,0,0,-0.3467,-0.3466,-0.3461,-0.3458,-0.3439,-0.3429,-0.3427,-0.3415,-0.3412,-0.3411,-0.3401,-0.3394,-0.3376,-0.3375,-0.3373,-0.3373,-0.3356,-0.3357,-0.3357,-0.3369,-0.3371,-0.3372,0,0,0,0,0,0,-0.3482,-0.3463,-0.3458,-0.3451,-0.3442,-0.3426,-0.3424,-0.3417,-0.3409,-0.3408,-0.3395,-0.3392,-0.3386,-0.3379,-0.3379,-0.3371,-0.3365,-0.3365,-0.3376,-0.3377,-0.3378,-0.338,-0.3367,0,0,0,0,0,-0.3484,-0.3477,-0.3462,-0.3457,-0.3453,-0.344,-0.3435,-0.3427,-0.3417,-0.3413,-0.3403,-0.3393,-0.3386,-0.3381,-0.3373,-0.3369,-0.3366,-0.3368,-0.337,-0.3371,-0.3371,-0.3368,-0.3369,-0.3359,-0.3359,-0.3359,0,0,-0.3489,-0.3478,-0.3474,-0.346,-0.3452,-0.3445,-0.3436,-0.343,-0.3425,-0.3412,-0.3405,-0.3397,-0.3386,-0.3381,-0.3378,-0.3375,-0.3373,-0.3371,-0.3372,-0.3371,-0.3369,-0.337,-0.3371,-0.3359,-0.3359,-0.3359,0,0,-0.3494,-0.3485,-0.3481,-0.3473,-0.3461,-0.3452,-0.3451,-0.3437,-0.3431,-0.3424,-0.3415,-0.3409,-0.3396,-0.3389,-0.3383,-0.3387,-0.338,-0.3385,-0.3391,-0.3389,-0.339,-0.3391,-0.3393,-0.3393,-0.3385,-0.3385,-0.3385,0,-0.3502,-0.3491,-0.348,-0.3474,-0.3468,-0.3456,-0.3452,-0.3445,-0.3431,-0.3427,-0.3424,-0.3408,-0.34,-0.3393,-0.3394,-0.339,-0.3389,-0.3386,-0.3391,-0.3392,-0.3392,-0.3394,-0.3394,-0.3386,-0.3386,-0.3386,-0.3386,0,-0.3501,-0.3494,-0.3492,-0.3479,-0.3473,-0.3468,-0.3456,-0.3452,-0.3445,-0.3437,-0.343,-0.342,-0.341,-0.3408,-0.3401,-0.34,-0.3399,-0.3393,-0.3388,-0.3394,-0.3395,-0.3396,-0.3387,-0.3387,-0.3387,-0.3386,0,0,-0.3514,-0.3495,-0.3495,-0.3489,-0.3475,-0.347,-0.3465,-0.3455,-0.3452,-0.3443,-0.3438,-0.3428,-0.3424,-0.3418,-0.341,-0.3408,-0.3413,-0.3403,-0.3403,-0.3405,-0.3411,-0.3415,-0.3416,-0.3408,-0.3408,-0.3408,-0.3412,0,-0.3518,-0.3507,-0.3497,-0.3491,-0.3484,-0.3474,-0.347,-0.3461,-0.3454,-0.3448,-0.344,-0.3433,-0.3427,-0.3423,-0.3421,-0.3412,-0.3414,-0.3412,-0.3404,-0.3404,-0.3407,-0.3416,-0.342,-0.3425,-0.3413,-0.3413,-0.3413,0,-0.352,-0.3511,-0.3504,-0.3492,-0.3489,-0.3485,-0.3476,-0.347,-0.3461,-0.3456,-0.3449,-0.3441,-0.3436,-0.3431,-0.3424,-0.3424,-0.342,-0.3415,-0.3415,-0.3414,-0.3408,-0.3415,-0.3426,-0.3426,-0.3413,-0.3413,-0.3413,0,-0.353,-0.3517,-0.3511,-0.3507,-0.3492,-0.349,-0.3484,-0.3474,-0.3469,-0.3461,-0.3458,-0.345,-0.3445,-0.3439,-0.343,-0.3427,-0.3424,-0.3418,-0.342,-0.342,-0.3419,-0.3419,-0.3429,-0.3417,-0.3417,-0.3417,-0.3417,0,-0.3535,-0.3531,-0.3516,-0.3512,-0.3508,-0.3497,-0.3493,-0.3486,-0.3478,-0.3473,-0.3463,-0.3459,-0.3447,-0.3442,-0.3434,-0.343,-0.3428,-0.3424,-0.3422,-0.3424,-0.3425,-0.3421,-0.3421,-0.3417,-0.3417,-0.3417,-0.3417,0,-0.3545,-0.3535,-0.3528,-0.3515,-0.3512,-0.3509,-0.3498,-0.3494,-0.3487,-0.3481,-0.3479,-0.3467,-0.3461,-0.3451,-0.3441,-0.3436,-0.3433,-0.343,-0.3436,-0.3435,-0.3437,-0.3436,-0.3444,-0.3445,-0.3433,-0.3433,-0.3433,0,-0.3549,-0.3545,-0.3532,-0.3528,-0.3522,-0.3516,-0.3511,-0.3501,-0.3496,-0.3485,-0.3483,-0.3476,-0.3469,-0.3459,-0.345,-0.3443,-0.3439,-0.3443,-0.3438,-0.3441,-0.3439,-0.3439,-0.3439,-0.3443,-0.3444,-0.3444,-0.3444,0,-0.3556,-0.3551,-0.3544,-0.3536,-0.3531,-0.3524,-0.3516,-0.3514,-0.3501,-0.3497,-0.349,-0.3485,-0.3475,-0.3468,-0.346,-0.3454,-0.3447,-0.3446,-0.3445,-0.3448,-0.3452,-0.345,-0.3438,-0.3445,-0.3445,-0.3445,-0.3445,-0.3445,-0.3563,-0.356,-0.355,-0.3543,-0.3536,-0.353,-0.3526,-0.3518,-0.3512,-0.3503,-0.3498,-0.3491,-0.3482,-0.347,-0.3465,-0.346,-0.3457,-0.3457,-0.3457,-0.3457,-0.3458,-0.3453,-0.3458,-0.3458,-0.3458,-0.3458,-0.3458,0,-0.357,-0.3563,-0.3557,-0.3547,-0.3542,-0.3536,-0.3528,-0.3524,-0.3518,-0.351,-0.3504,-0.3496,-0.349,-0.348,-0.3473,-0.3471,-0.3468,-0.3469,-0.3469,-0.3468,-0.3461,-0.3462,-0.3472,-0.3472,-0.3472,-0.3472,-0.3472,-0.3472,-0.3573,-0.3567,-0.3562,-0.3553,-0.3547,-0.354,-0.3536,-0.353,-0.3524,-0.3516,-0.351,-0.3504,-0.3496,-0.3488,-0.3482,-0.3479,-0.3477,-0.348,-0.3476,-0.347,-0.3468,-0.3467,-0.3468,-0.3479,-0.3479,-0.3484,-0.3484,-0.3484]},{"header":{"parameterUnit":"m.s-1","parameterCategory":1,"la1":30.2991,"la2":30.254,"lo1":-89.0895,"lo2":-89.0444,"dy":0.0017,"dx":0.0017,"nx":28,"ny":28,"refTime":"2024-05-01T03:00:00:Z","depth":0,"parameterNumber":3,"parameterNumberName":"V-component_of_WINDS"},"data":[0,0,0,0,0,0,0,0,0,0,0,0,0,0,0,0,0,0,0,0,0,0,0,0,0,0,0,0,0,0,0,0,0,0,0,0,0,0,0,0,0,0,0,0,0,0,0,0,0,0,0,0,0,0,0,0,0,0,2.9186,2.9185,0,2.9128,2.9127,2.9127,2.908,2.908,2.9079,2.9079,2.9016,2.9014,2.9013,0,0,0,0,0,0,0,0,0,0,0,0,0,2.9253,2.9252,2.9186,2.9185,2.9185,2.9128,2.9127,2.9127,2.908,2.908,2.9079,2.9079,2.9016,2.9014,2.9013,0,0,0,0,0,0,0,0,0,0,0,0,0,2.9212,2.9252,2.9186,2.9155,2.9152,2.9128,2.9127,2.9126,2.9081,2.908,2.9079,2.9078,2.9016,2.9015,2.9013,2.9015,0,0,2.9007,2.9006,0,0,0,0,0,0,0,0,2.9215,2.921,2.916,2.9157,2.9153,2.9111,2.9128,2.9089,2.9081,2.9107,2.9079,2.9078,2.9047,2.9043,2.9034,2.9012,2.9009,2.9007,2.9006,2.9005,2.9004,0,0,0,0,0,0,0,2.9217,2.9212,2.9163,2.916,2.9155,2.9142,2.9136,2.912,2.9082,2.9105,2.9101,2.9095,2.9045,2.9035,2.9032,2.9008,2.9007,2.9005,2.9004,2.9003,2.8984,2.8985,0,0,0,0,0,0,2.9226,2.9215,2.9165,2.9161,2.9183,2.9142,2.9135,2.9125,2.9082,2.9075,2.9096,2.9094,2.9039,2.9034,2.9029,2.9028,2.9005,2.9003,2.9002,2.8984,2.8985,2.8985,0,0,0,0,0,0,2.9227,2.9222,2.9167,2.9187,2.9179,2.9141,2.9131,2.9124,2.9114,2.9075,2.9068,2.9093,2.9038,2.9032,2.9019,2.9026,2.9002,2.9,2.8983,2.8984,2.8985,2.9027,0,0,0,0,0,0,2.9229,2.9223,2.9224,2.9187,2.9178,2.9159,2.9132,2.9124,2.9112,2.9108,2.9071,2.9064,2.9037,2.9022,2.9017,2.9023,2.8999,2.8982,2.8983,2.8985,2.9025,2.903,2.9033,0,0,0,0,0,2.9232,2.9237,2.9224,2.9218,2.9179,2.916,2.9154,2.9125,2.9112,2.9113,2.9088,2.9065,2.9026,2.9021,2.9015,2.902,2.8982,2.8983,2.8984,2.9023,2.9029,2.9033,0,0,0,0,0,0,2.9274,2.9232,2.9217,2.9211,2.919,2.9152,2.9152,2.9132,2.9112,2.9109,2.9072,2.9064,2.9055,2.9036,2.9031,2.902,2.9001,2.9001,2.9032,2.9037,2.9041,2.9046,2.8997,0,0,0,0,0,2.9283,2.9272,2.9235,2.9233,2.9223,2.919,2.918,2.9159,2.9135,2.9125,2.9099,2.9075,2.9057,2.9046,2.9027,2.9022,2.9013,2.9023,2.9027,2.9031,2.9031,2.9026,2.903,2.899,2.899,2.899,0,0,2.9301,2.9276,2.9271,2.9241,2.9222,2.921,2.9182,2.9171,2.9161,2.9123,2.9109,2.9089,2.906,2.9051,2.9045,2.9035,2.904,2.9032,2.9036,2.9034,2.9028,2.9032,2.9035,2.8991,2.8991,2.8991,0,0,2.9327,2.9308,2.9304,2.9286,2.9258,2.9235,2.9234,2.92,2.9185,2.9172,2.9143,2.913,2.91,2.908,2.9066,2.9085,2.9063,2.908,2.9102,2.9098,2.9101,2.9103,2.911,2.9112,2.9081,2.9081,2.9081,0,2.9352,2.9334,2.9304,2.9295,2.9282,2.9248,2.9244,2.9227,2.9194,2.9185,2.9174,2.9136,2.9114,2.9099,2.9104,2.9094,2.9091,2.9084,2.9103,2.9105,2.9107,2.9113,2.9115,2.9083,2.9083,2.9083,2.9083,0,2.9367,2.9354,2.9355,2.9325,2.9312,2.9305,2.9273,2.9263,2.9244,2.9222,2.9208,2.918,2.9155,2.915,2.913,2.9133,2.9127,2.911,2.909,2.9114,2.9118,2.912,2.9086,2.9086,2.9085,2.9084,0,0,2.9417,2.9372,2.9372,2.9358,2.9325,2.9314,2.9305,2.9282,2.9274,2.9252,2.9243,2.9219,2.9203,2.9187,2.9165,2.9161,2.9178,2.9144,2.9143,2.9151,2.9178,2.9191,2.9194,2.9163,2.9163,2.9164,2.918,0,2.9438,2.9421,2.9394,2.9386,2.9374,2.9341,2.9333,2.9311,2.9291,2.9276,2.9253,2.9236,2.9217,2.9207,2.9202,2.9177,2.9182,2.9175,2.9153,2.9152,2.9161,2.9196,2.921,2.9227,2.9182,2.9182,2.9182,0,2.946,2.9441,2.9432,2.9399,2.9393,2.9387,2.9363,2.9351,2.9324,2.9309,2.9292,2.9268,2.9256,2.9238,2.922,2.9216,2.9205,2.9191,2.9191,2.9187,2.9169,2.9193,2.9231,2.9234,2.9185,2.9185,2.9184,0,2.9497,2.947,2.9461,2.945,2.9411,2.9407,2.9391,2.9364,2.9352,2.9331,2.9323,2.9301,2.9288,2.9271,2.9241,2.9231,2.9226,2.9206,2.9212,2.9213,2.9212,2.9212,2.9249,2.9206,2.9206,2.9206,2.9206,0,2.9523,2.9518,2.9477,2.9472,2.9465,2.9433,2.9428,2.9408,2.9385,2.9374,2.9344,2.9334,2.9295,2.9281,2.9257,2.9245,2.924,2.9226,2.922,2.9229,2.9231,2.9221,2.9219,2.9206,2.9206,2.9206,2.9206,0,2.9564,2.9536,2.9524,2.9489,2.948,2.9477,2.9446,2.9439,2.9417,2.9404,2.9398,2.9363,2.9344,2.9313,2.9284,2.9268,2.9261,2.925,2.927,2.9266,2.9274,2.9274,2.9306,2.9308,2.9264,2.9264,2.9265,0,2.9582,2.9578,2.9543,2.9534,2.9519,2.9505,2.9493,2.9461,2.945,2.942,2.9416,2.9395,2.9377,2.9348,2.9318,2.9296,2.9285,2.9298,2.9281,2.929,2.9285,2.9285,2.9284,2.9301,2.9302,2.9302,2.9303,0,2.9617,2.9603,2.9588,2.9567,2.9554,2.9536,2.9516,2.9511,2.9474,2.9462,2.9443,2.9429,2.9401,2.938,2.9354,2.9335,2.9313,2.9308,2.9309,2.9317,2.9329,2.9323,2.928,2.9308,2.9307,2.9307,2.9307,2.9306,2.9646,2.9641,2.9616,2.9599,2.9582,2.9564,2.9556,2.9533,2.9517,2.9492,2.9474,2.9456,2.9429,2.9392,2.9375,2.936,2.935,2.935,2.935,2.9351,2.9354,2.9332,2.9355,2.9355,2.9355,2.9354,2.9354,0,2.9679,2.9662,2.9647,2.9621,2.9608,2.9589,2.9566,2.9556,2.9541,2.9519,2.9502,2.948,2.946,2.9429,2.9407,2.94,2.9389,2.9395,2.9395,2.9391,2.9364,2.9367,2.9404,2.9404,2.9404,2.9404,2.9404,2.9404,2.9695,2.9685,2.9669,2.965,2.9632,2.9615,2.9604,2.9587,2.9569,2.9546,2.953,2.9511,2.9485,2.946,2.944,2.9432,2.9424,2.9434,2.9422,2.9398,2.9393,2.9388,2.939,2.9432,2.9432,2.9449,2.945,2.945]}]]